STARLINK-5370 (56145 NORAD) Tracking and Keplerian Element Data

This shows tracking and keplerian element data for the satellite.

Feedback or suggestion? Click here.




ElementValue
Catalog56145
NameSTARLINK-5370
Epoch Orbit656
Epoch Day127.09927053
Epoch Year2023
RAAN33.1372
Inclination43.002
Eccentricity0.0001618
Argument of Perigee264.4576
Mean Anonmoly95.6107
Mean Motion15.71343823
Decay Rate-4.897E-05
L11 56145U 23046BF 23127.09927053 -.00004897 00000+0 -33934-4 0 9991
L22 56145 43.0020 33.1372 0001618 264.4576 95.6107 15.71343823 6563



Live tracking and technical data element details for STARLINK-5370 (NORAD 56145). STARLINK-5370 can be tracked NOW for your location showing map with azimuth and elevation plus other details from your city location.







IsCatalogInMostPopularTable: catalog: 56145, numindb: 5
Update: records affected: 1



GetName: 56145 STARLINK-5370

Hit Count: updated at: Sat, 03 Jun 2023 17:01:52 GMT